Regional Weather Roundup
Issued by NWS

Home | Current Version | Previous Version | Graphics & Text | Print | Product List | Glossary On
Versions: 1 2 3 4 5 6 7 8 9 10 11 12 13 14 15 16 17 18 19 20 21 22 23 24 25 26 27 28 29 30 31 32 33 34 35 36 37 38 39 40 41 42 43 44 45 46 47 48 49 50
882
ASUS43 KLSX 281010
RWRMO

WEATHER SUMMARY FOR MISSOURI
NATIONAL WEATHER SERVICE SPRINGFIELD MO
500 AM CDT THU JUL 28 2016

NOTE: "FAIR" INDICATES FEW OR NO CLOUDS BELOW 12,000 FEET WITH NO
       SIGNIFICANT WEATHER AND/OR OBSTRUCTIONS TO VISIBILITY.
       CURRENT SKY AND/OR WEATHER CONDITIONS ARE NOT AVAILABLE FOR
       CHILLICOTHE AND FARMINGTON.

MOZ001>031-035>038-043-044-053-054-281100-
...NORTHERN AND WESTERN MISSOURI...

CITY           SKY/WX    TMP DP  RH WIND       PRES   REMARKS
KANSAS CTY INT PTCLDY    70  69  97 N3        29.93F
KANSAS C DTWN  CLEAR     75  72  90 N3        29.91F
LEE`S SUMMIT   CLEAR     74  71  91 CALM      29.94S
ST JOSEPH      PTCLDY    69  68  96 NE5       29.93F FOG
CHILLICOTHE      N/A     71  69  93 CALM      29.93S
KIRKSVILLE     FOG       67  66  97 CALM      29.92F VSB 3/4

$$
MOZ066>068-077>081-088>096-101>105-281100-
...SOUTHWEST MISSOURI...

CITY           SKY/WX    TMP DP  RH WIND       PRES   REMARKS
SPRINGFIELD    CLEAR     71  68  90 SW5       29.96R
JOPLIN         CLEAR     72  70  93 CALM      29.95S
BRANSON        PTCLDY    72  72 100 CALM      29.97S

$$
MOZ032>034-039>042-045>050-055>058-069>072-281100-
...CENTRAL MISSOURI...

CITY           SKY/WX    TMP DP  RH WIND       PRES   REMARKS
COLUMBIA       CLEAR     74  73  97 W5        29.91S
JEFFERSON CITY CLEAR     73  71  93 CALM      29.90R
ROLLA          CLEAR     69  68  96 SW5       29.91S
SEDALIA        CLEAR     74  71  91 NW3       29.93R
WHITEMAN AFB   PTCLDY    73  73 100 SW2       29.92R
OSAGE BEACH    CLEAR     73  72  96 W3        29.93R

$$
MOZ051-052-059>065-281100-
...EAST CENTRAL MISSOURI...

CITY           SKY/WX    TMP DP  RH WIND       PRES   REMARKS
ST LOUIS INTL  PTCLDY    78  73  84 CALM      29.87F
SPIRIT OF STL  CLEAR     74  73  97 SW3       29.86F
ST CHARLES     CLEAR     73  71  93 E3        29.86S

$$
MOZ072>076-082>087-097>100-106>115-281100-
...SOUTH CENTRAL AND SOUTHEAST MISSOURI...

CITY           SKY/WX    TMP DP  RH WIND       PRES   REMARKS
CAPE GIRARDEAU RAIN      73  72  96 SW5       29.90R FOG
FARMINGTON     CLOUDY    73  71  93 VRB3      29.92S
POPLAR BLUFF   CLOUDY    73  72  96 SW5       29.90F
WEST PLAINS    CLEAR     71  68  90 S5        29.96R

$$




USA.gov is the U.S. government's official web portal to all federal, state and local government web resources and services.